Time,TemperatureF,DewpointF,PressureIn,WindDirection,WindDirectionDegrees,WindSpeedMPH,WindSpeedGustMPH,Humidity,HourlyPrecipIn,Conditions,Clouds,dailyrainin,SolarRadiationWatts/m^2,SoftwareType,DateUTC
2013-09-30 00:11:00,54.1,50.0,29.97,SW,221,0.0,1.0,85,0.00,,,0.00,0,weatherlink.com 1.10,2013-09-30 05:11:00,
2013-09-30 00:26:00,54.0,50.0,29.97,SW,221,0.0,1.0,85,0.00,,,0.00,0,weatherlink.com 1.10,2013-09-30 05:26:00,
2013-09-30 00:41:00,54.3,50.0,29.98,SSW,204,0.0,1.0,85,0.00,,,0.00,0,weatherlink.com 1.10,2013-09-30 05:41:00,
2013-09-30 00:56:00,54.0,50.0,29.98,SSW,207,0.0,1.0,85,0.00,,,0.00,0,weatherlink.com 1.10,2013-09-30 05:56:00,
2013-09-30 01:11:00,53.9,50.0,29.98,South,189,0.0,2.0,85,0.00,,,0.00,0,weatherlink.com 1.10,2013-09-30 06:11:00,
2013-09-30 01:27:00,53.5,50.0,29.97,South,190,0.0,2.0,86,0.00,,,0.00,0,weatherlink.com 1.10,2013-09-30 06:27:00,
2013-09-30 01:42:00,53.2,50.0,29.97,South,190,0.0,1.0,87,0.00,,,0.00,0,weatherlink.com 1.10,2013-09-30 06:42:00,
2013-09-30 01:57:00,53.2,50.0,29.97,SW,222,0.0,1.0,87,0.00,,,0.00,0,weatherlink.com 1.10,2013-09-30 06:57:00,
2013-09-30 02:12:00,53.0,50.0,29.96,South,190,0.0,2.0,88,0.00,,,0.00,0,weatherlink.com 1.10,2013-09-30 07:12:00,
2013-09-30 02:27:00,53.0,50.0,29.96,South,191,0.0,1.0,88,0.00,,,0.00,0,weatherlink.com 1.10,2013-09-30 07:27:00,
2013-09-30 02:42:00,53.0,50.0,29.96,South,191,0.0,1.0,88,0.00,,,0.00,0,weatherlink.com 1.10,2013-09-30 07:42:00,
2013-09-30 02:57:00,53.2,50.0,29.96,SW,217,0.0,2.0,87,0.00,,,0.00,0,weatherlink.com 1.10,2013-09-30 07:57:00,
2013-09-30 03:12:00,52.9,49.0,29.96,West,263,0.0,2.0,87,0.00,,,0.00,0,weatherlink.com 1.10,2013-09-30 08:12:00,
2013-09-30 03:27:00,52.2,49.0,29.96,SW,223,0.0,1.0,88,0.00,,,0.00,0,weatherlink.com 1.10,2013-09-30 08:27:00,
2013-09-30 03:42:00,52.4,49.0,29.96,SW,215,0.0,1.0,87,0.00,,,0.00,0,weatherlink.com 1.10,2013-09-30 08:42:00,
2013-09-30 03:57:00,52.7,49.0,29.96,SW,231,0.0,1.0,86,0.00,,,0.00,0,weatherlink.com 1.10,2013-09-30 08:57:00,
2013-09-30 04:12:00,52.6,49.0,29.96,SW,229,0.0,1.0,86,0.00,,,0.00,0,weatherlink.com 1.10,2013-09-30 09:12:00,
2013-09-30 04:27:00,52.8,48.0,29.96,SW,223,0.0,1.0,85,0.00,,,0.00,0,weatherlink.com 1.10,2013-09-30 09:27:00,
2013-09-30 04:42:00,52.6,48.0,29.96,SW,225,0.0,1.0,85,0.00,,,0.00,0,weatherlink.com 1.10,2013-09-30 09:42:00,
2013-09-30 04:57:00,52.7,48.0,29.96,WSW,250,0.0,1.0,84,0.00,,,0.00,0,weatherlink.com 1.10,2013-09-30 09:57:00,
2013-09-30 05:12:00,52.4,48.0,29.96,WSW,250,0.0,1.0,84,0.00,,,0.00,0,weatherlink.com 1.10,2013-09-30 10:12:00,
2013-09-30 05:27:00,52.5,48.0,29.96,South,185,0.0,2.0,84,0.00,,,0.00,0,weatherlink.com 1.10,2013-09-30 10:27:00,
2013-09-30 05:42:00,52.4,47.0,29.96,South,185,0.0,1.0,82,0.00,,,0.00,0,weatherlink.com 1.10,2013-09-30 10:42:00,
2013-09-30 05:57:00,52.8,47.0,29.96,South,186,0.0,2.0,80,0.00,,,0.00,0,weatherlink.com 1.10,2013-09-30 10:57:00,
2013-09-30 06:12:00,52.6,47.0,29.97,South,186,0.0,1.0,80,0.00,,,0.00,0,weatherlink.com 1.10,2013-09-30 11:12:00,
2013-09-30 06:27:00,52.8,46.0,29.97,South,186,0.0,0.0,78,0.00,,,0.00,0,weatherlink.com 1.10,2013-09-30 11:27:00,
2013-09-30 06:42:00,52.4,46.0,29.97,South,186,0.0,2.0,79,0.00,,,0.00,0,weatherlink.com 1.10,2013-09-30 11:42:00,
2013-09-30 06:57:00,52.0,46.0,29.97,South,190,1.0,1.0,81,0.00,,,0.00,7,weatherlink.com 1.10,2013-09-30 11:57:00,
2013-09-30 07:12:00,52.0,46.0,29.96,South,190,0.0,1.0,81,0.00,,,0.00,14,weatherlink.com 1.10,2013-09-30 12:12:00,
2013-09-30 07:27:00,52.7,47.0,29.96,South,190,0.0,1.0,81,0.00,,,0.00,25,weatherlink.com 1.10,2013-09-30 12:27:00,
2013-09-30 07:42:00,53.3,47.0,29.96,South,190,0.0,1.0,79,0.00,,,0.00,30,weatherlink.com 1.10,2013-09-30 12:42:00,
2013-09-30 07:57:00,54.1,47.0,29.96,South,190,0.0,2.0,78,0.00,,,0.00,32,weatherlink.com 1.10,2013-09-30 12:57:00,
2013-09-30 08:12:00,55.0,48.0,29.96,South,183,0.0,3.0,78,0.00,,,0.00,35,weatherlink.com 1.10,2013-09-30 13:12:00,
2013-09-30 08:27:00,56.6,48.0,29.95,SSE,168,1.0,3.0,73,0.00,,,0.00,241,weatherlink.com 1.10,2013-09-30 13:27:00,
2013-09-30 08:42:00,57.5,49.0,29.96,SSE,166,2.0,3.0,72,0.00,,,0.00,287,weatherlink.com 1.10,2013-09-30 13:42:00,
2013-09-30 08:57:00,58.7,49.0,29.96,SSW,194,3.0,5.0,71,0.00,,,0.00,227,weatherlink.com 1.10,2013-09-30 13:57:00,
2013-09-30 09:12:00,59.4,50.0,29.95,South,187,0.0,3.0,71,0.00,,,0.00,53,weatherlink.com 1.10,2013-09-30 14:12:00,
2013-09-30 09:27:00,60.4,51.0,29.95,South,190,1.0,6.0,72,0.00,,,0.00,56,weatherlink.com 1.10,2013-09-30 14:27:00,
2013-09-30 09:42:00,61.4,53.0,29.95,SSE,167,1.0,3.0,73,0.00,,,0.00,475,weatherlink.com 1.10,2013-09-30 14:42:00,
2013-09-30 09:57:00,62.9,53.0,29.95,SSW,198,0.0,4.0,71,0.00,,,0.00,547,weatherlink.com 1.10,2013-09-30 14:57:00,
2013-09-30 10:13:00,62.7,52.0,29.95,SSW,194,0.0,6.0,69,0.00,,,0.00,411,weatherlink.com 1.10,2013-09-30 15:13:00,
2013-09-30 10:28:00,64.6,53.0,29.95,SSW,207,4.0,4.0,66,0.00,,,0.00,554,weatherlink.com 1.10,2013-09-30 15:28:00,
2013-09-30 10:43:00,64.5,53.0,29.95,South,191,1.0,6.0,67,0.00,,,0.00,580,weatherlink.com 1.10,2013-09-30 15:43:00,
2013-09-30 10:58:00,65.3,52.0,29.94,SSE,167,3.0,4.0,62,0.00,,,0.00,601,weatherlink.com 1.10,2013-09-30 15:58:00,
2013-09-30 11:13:00,66.0,52.0,29.92,South,178,2.0,5.0,60,0.00,,,0.00,606,weatherlink.com 1.10,2013-09-30 16:13:00,
2013-09-30 11:28:00,65.8,51.0,29.92,South,188,2.0,5.0,60,0.00,,,0.00,638,weatherlink.com 1.10,2013-09-30 16:28:00,
2013-09-30 11:43:00,66.8,54.0,29.93,SSE,153,2.0,2.0,64,0.00,,,0.00,635,weatherlink.com 1.10,2013-09-30 16:43:00,
2013-09-30 11:58:00,66.9,52.0,29.94,South,185,1.0,5.0,60,0.00,,,0.00,663,weatherlink.com 1.10,2013-09-30 16:58:00,
2013-09-30 12:13:00,68.1,54.0,29.93,South,178,4.0,5.0,60,0.00,,,0.00,682,weatherlink.com 1.10,2013-09-30 17:13:00,
2013-09-30 12:28:00,68.0,54.0,29.92,South,190,0.0,4.0,61,0.00,,,0.00,548,weatherlink.com 1.10,2013-09-30 17:28:00,
2013-09-30 12:43:00,68.5,54.0,29.92,SSE,164,0.0,4.0,61,0.00,,,0.00,642,weatherlink.com 1.10,2013-09-30 17:43:00,
2013-09-30 12:58:00,68.2,53.0,29.91,South,185,1.0,5.0,59,0.00,,,0.00,710,weatherlink.com 1.10,2013-09-30 17:58:00,
2013-09-30 13:13:00,67.4,56.0,29.90,SSE,167,1.0,4.0,66,0.00,,,0.00,619,weatherlink.com 1.10,2013-09-30 18:13:00,
2013-09-30 13:28:00,67.8,56.0,29.90,South,176,2.0,2.0,66,0.00,,,0.00,613,weatherlink.com 1.10,2013-09-30 18:28:00,
2013-09-30 13:43:00,66.8,55.0,29.89,South,186,0.0,5.0,67,0.00,,,0.00,631,weatherlink.com 1.10,2013-09-30 18:43:00,
2013-09-30 13:58:00,66.9,54.0,29.89,South,181,1.0,4.0,63,0.00,,,0.00,598,weatherlink.com 1.10,2013-09-30 18:58:00,
2013-09-30 14:13:00,66.8,54.0,29.88,South,178,2.0,5.0,64,0.00,,,0.00,517,weatherlink.com 1.10,2013-09-30 19:13:00,
2013-09-30 14:28:00,66.9,55.0,29.87,SSW,194,4.0,5.0,66,0.00,,,0.00,622,weatherlink.com 1.10,2013-09-30 19:28:00,
2013-09-30 14:47:00,66.6,57.0,29.87,South,183,1.0,6.0,71,0.00,,,0.00,519,weatherlink.com 1.10,2013-09-30 19:47:00,
2013-09-30 14:58:00,66.8,57.0,29.87,SSW,198,1.0,9.0,71,0.00,,,0.00,438,weatherlink.com 1.10,2013-09-30 19:58:00,
2013-09-30 15:13:00,66.7,57.0,29.86,SSE,150,2.0,7.0,70,0.00,,,0.00,352,weatherlink.com 1.10,2013-09-30 20:13:00,
2013-09-30 15:28:00,66.0,56.0,29.86,SSW,194,2.0,5.0,70,0.00,,,0.00,90,weatherlink.com 1.10,2013-09-30 20:28:00,
2013-09-30 15:43:00,65.2,56.0,29.85,SSW,193,4.0,7.0,73,0.00,,,0.00,81,weatherlink.com 1.10,2013-09-30 20:43:00,
2013-09-30 15:58:00,65.0,57.0,29.85,South,180,1.0,6.0,74,0.00,,,0.00,72,weatherlink.com 1.10,2013-09-30 20:58:00,
2013-09-30 16:13:00,65.1,56.0,29.85,South,175,0.0,6.0,73,0.00,,,0.00,91,weatherlink.com 1.10,2013-09-30 21:13:00,
2013-09-30 16:28:00,65.2,57.0,29.84,South,177,0.0,4.0,74,0.00,,,0.00,79,weatherlink.com 1.10,2013-09-30 21:28:00,
2013-09-30 16:43:00,64.6,57.0,29.84,South,190,1.0,4.0,75,0.00,,,0.00,56,weatherlink.com 1.10,2013-09-30 21:43:00,
2013-09-30 16:58:00,64.6,55.0,29.84,South,181,4.0,6.0,72,0.00,,,0.00,42,weatherlink.com 1.10,2013-09-30 21:58:00,
2013-09-30 17:13:00,64.5,55.0,29.83,South,181,0.0,5.0,71,0.00,,,0.00,33,weatherlink.com 1.10,2013-09-30 22:13:00,
2013-09-30 17:28:00,64.0,54.0,29.83,South,187,3.0,6.0,71,0.00,,,0.00,26,weatherlink.com 1.10,2013-09-30 22:28:00,
2013-09-30 17:43:00,63.5,55.0,29.83,South,190,1.0,5.0,73,0.00,,,0.00,21,weatherlink.com 1.10,2013-09-30 22:43:00,
2013-09-30 17:58:00,63.1,55.0,29.83,South,190,1.0,4.0,74,0.00,,,0.00,16,weatherlink.com 1.10,2013-09-30 22:58:00,
2013-09-30 18:13:00,62.6,55.0,29.83,SSW,194,1.0,5.0,75,0.00,,,0.00,11,weatherlink.com 1.10,2013-09-30 23:13:00,
2013-09-30 18:28:00,62.1,55.0,29.83,South,180,1.0,3.0,77,0.00,,,0.00,7,weatherlink.com 1.10,2013-09-30 23:28:00,
2013-09-30 18:43:00,61.6,55.0,29.84,South,187,1.0,3.0,80,0.00,,,0.00,0,weatherlink.com 1.10,2013-09-30 23:43:00,
2013-09-30 18:58:00,61.1,55.0,29.84,South,172,0.0,3.0,81,0.00,,,0.00,0,weatherlink.com 1.10,2013-09-30 23:58:00,
2013-09-30 19:13:00,61.1,56.0,29.84,South,177,1.0,3.0,82,0.00,,,0.00,0,weatherlink.com 1.10,2013-10-01 00:13:00,
2013-09-30 19:28:00,61.2,56.0,29.84,SSE,159,2.0,3.0,82,0.00,,,0.00,0,weatherlink.com 1.10,2013-10-01 00:28:00,
2013-09-30 19:44:00,61.3,57.0,29.84,South,181,2.0,3.0,84,0.00,,,0.00,0,weatherlink.com 1.10,2013-10-01 00:44:00,
2013-09-30 19:59:00,61.2,56.0,29.84,South,180,0.0,3.0,84,0.00,,,0.00,0,weatherlink.com 1.10,2013-10-01 00:59:00,
2013-09-30 20:14:00,61.2,57.0,29.84,South,169,1.0,4.0,85,0.00,,,0.00,0,weatherlink.com 1.10,2013-10-01 01:14:00,
2013-09-30 20:29:00,61.4,57.0,29.83,South,177,1.0,3.0,84,0.00,,,0.00,0,weatherlink.com 1.10,2013-10-01 01:29:00,
2013-09-30 20:44:00,62.0,57.0,29.83,South,178,1.0,6.0,84,0.00,,,0.00,0,weatherlink.com 1.10,2013-10-01 01:44:00,
2013-09-30 20:59:00,61.7,57.0,29.83,South,177,2.0,3.0,85,0.00,,,0.00,0,weatherlink.com 1.10,2013-10-01 01:59:00,
2013-09-30 21:14:00,61.8,57.0,29.83,SSE,157,0.0,5.0,85,0.00,,,0.00,0,weatherlink.com 1.10,2013-10-01 02:14:00,
2013-09-30 21:29:00,61.7,57.0,29.83,South,179,1.0,5.0,83,0.00,,,0.00,0,weatherlink.com 1.10,2013-10-01 02:29:00,
2013-09-30 21:44:00,62.1,56.0,29.82,SSE,156,4.0,7.0,81,0.00,,,0.00,0,weatherlink.com 1.10,2013-10-01 02:44:00,
2013-09-30 21:59:00,62.1,56.0,29.82,South,178,0.0,4.0,81,0.00,,,0.00,0,weatherlink.com 1.10,2013-10-01 02:59:00,
2013-09-30 22:14:00,61.8,56.0,29.82,South,178,0.0,4.0,80,0.00,,,0.00,0,weatherlink.com 1.10,2013-10-01 03:14:00,
2013-09-30 22:29:00,62.3,56.0,29.81,South,180,0.0,5.0,79,0.00,,,0.00,0,weatherlink.com 1.10,2013-10-01 03:29:00,
2013-09-30 22:44:00,62.4,55.0,29.81,SE,144,3.0,4.0,78,0.00,,,0.00,0,weatherlink.com 1.10,2013-10-01 03:44:00,
2013-09-30 22:59:00,62.6,55.0,29.81,South,178,0.0,6.0,77,0.00,,,0.00,0,weatherlink.com 1.10,2013-10-01 03:59:00,
2013-09-30 23:14:00,62.2,55.0,29.82,SSW,196,2.0,5.0,77,0.00,,,0.00,0,weatherlink.com 1.10,2013-10-01 04:14:00,
2013-09-30 23:29:00,61.7,55.0,29.83,SSE,159,3.0,4.0,78,0.00,,,0.00,0,weatherlink.com 1.10,2013-10-01 04:29:00,
2013-09-30 23:44:00,61.1,55.0,29.82,SSW,210,1.0,5.0,79,0.00,,,0.00,0,weatherlink.com 1.10,2013-10-01 04:44:00,
2013-09-30 23:59:00,60.7,54.0,29.83,SSW,195,1.0,4.0,79,0.00,,,0.00,0,weatherlink.com 1.10,2013-10-01 04:59:00,